408P/Novichonok-Gerke (2022)

Japanese version
Home page
Updated on December 11, 2020

---------------------------------------------------------------------

* Profile

Designation 408P/2020 M7
Recovery Date June 20, 2020
Magnitude 21.9 mag
Recoverer Pan-STARRS 1 telescope (Haleakala)

* Orbital Elements

Epoch 2022 Sept. 18.0 TT = JDT 2459840.5                                        
T 2022 Oct. 5.03415 TT                                  Rudenko                 
q   3.4675195            (2000.0)            P               Q                  
n   0.09538048     Peri.  226.45409     +0.56742829     -0.82162588             
a   4.7442007      Node   189.44118     +0.81816900     +0.57002443             
e   0.2691035      Incl.   19.35689     +0.09286883     -0.00175037             
P  10.3                                                                         
From 464 observations 2011 Sept. 7-2020 Sept. 10, mean residual 0".6.           

* Magnitudes Graph

        m1 = 10.0 + 5 log d + 10.0 log r

---------------------------------------------------------------------

The orbital elements are published on M.P.E.C. 2020-V78.
The magnitudes graphs are made with Comet for Windows.

---------------------------------------------------------------------

Copyright(C) Seiichi Yoshida (comet@aerith.net). All rights reserved.